Location: Bellerive
(46.9237°N, 7.0223°E)
Time: 10:03:26
(UTC+00:00)

MetOp-B - Pass Details

Date: 09 April 2020
Orbit: 818 x 822 km, 98.7° (Epoch: 25 May)

Event Time Altitude Azimuth Distance (km) Brightness Sun altitude
Exits shadow 20:32:21 36° 177° (S) 1,269 4.8 -22.0°
Maximum altitude 20:34:34 76° 256° (WSW) 850 4.2 -22.3°
Drops below altitude 10° 20:39:58 10° 343° (NNW) 2,430 7.4 -23.0°
Sets 20:42:20 0° 345° (NNW) 3,367 8.3 -23.3°
